Tracking 28052 objects as of 21-Sep-2023
HD Live streaming from Space Station
objects crossing your sky now

CZ-4C R/B

Track CZ-4C R/B now!
10-day predictions
CZ-4C R/B is classified as:


NORAD ID: 39211
Int'l Code: 2013-037D
Perigee: 460.0 km
Apogee: 610.1 km
Inclination: 98.1 °
Period: 95.2 minutes
Semi major axis: 6906 km
RCS: Unknown
Launch date: July 19, 2013
Source: People's Republic of China (PRC)
Launch site: Taiyaun Space Center, China (TSC)

Note: This is a ROCKET BODY
Your satellite tracking list
Your tracking list is empty




NASA's NSSDC Master Catalog

Two Line Element Set (TLE):
1 39211U 13037D   23263.80218515  .00006839  00000-0  34163-3 0  9992
2 39211  98.0668 103.4052 0108738 145.2886 215.5502 15.12719774558485
Source of the keplerian elements: AFSPC